EW9826 Weather Reports


time (UTC)temp
C
wind
direction
speed
KPH
gust
KPH
rain 1hr
cm
rain 24hr
cm
rain mn
cm
humidity
%
barometer
mb
20260903232058 21 239 8.0 14.5 0.00 0.13 0.00 87 1014.3
20260903231558 21 248 6.4 16.1 0.00 0.13 0.00 87 1014.3
20260903230057 21 228 11.3 24.1 0.00 0.13 0.00 87 1014.8
20260903225558 21 233 8.0 20.9 0.00 0.13 0.00 87 1014.8
20260903225058 21 233 8.0 19.3 0.00 0.13 0.00 87 1014.8
20260903224557 21 250 9.7 24.1 0.00 0.13 0.00 87 1014.8
20260903224059 21 238 11.3 25.7 0.00 0.13 0.00 87 1014.8
20260903223558 21 241 8.0 20.9 0.00 0.13 0.00 87 1014.8
20260903223059 21 236 8.0 22.5 0.00 0.13 0.00 87 1014.8
20260903220058 21 247 9.7 24.1 0.00 0.13 0.00 87 1015.3
20260903215557 21 240 11.3 35.4 0.00 0.13 0.13 87 1015.3
20260903214557 21 236 11.3 24.1 0.00 0.13 0.13 87 1015.3
20260903214058 21 232 12.9 22.5 0.00 0.13 0.13 87 1015.3
20260903212058 21 244 8.0 24.1 0.00 0.13 0.13 87 1015.4
20260903211557 21 252 9.7 22.5 0.00 0.13 0.13 87 1015.4
20260903211058 21 238 9.7 32.2 0.00 0.13 0.13 87 1015.6
20260903204058 21 246 8.0 24.1 0.00 0.13 0.13 88 1016.0
20260903203557 21 233 8.0 19.3 0.00 0.13 0.13 88 1016.0
20260903203058 21 251 11.3 24.1 0.00 0.13 0.13 88 1016.1
20260903202557 21 241 11.3 19.3 0.00 0.13 0.13 88 1015.9
20260903201558 21 223 11.3 22.5 0.00 0.13 0.13 88 1016.2
20260903201058 21 233 9.7 20.9 0.00 0.13 0.13 87 1016.0
20260903193058 21 260 11.3 22.5 0.00 0.13 0.13 87 1016.2
20260903192557 21 228 9.7 20.9 0.00 0.13 0.13 87 1016.1
20260903192058 21 227 9.7 20.9 0.00 0.13 0.13 88 1016.0
20260903183058 21 258 8.0 20.9 0.00 0.13 0.13 87 1016.2
20260903182557 21 236 11.3 20.9 0.00 0.13 0.13 87 1016.3
20260903181058 21 240 8.0 27.4 0.00 0.13 0.13 86 1016.2
20260903174557 21 245 11.3 19.3 0.00 0.13 0.13 84 1016.3
20260903173557 21 244 8.0 19.3 0.00 0.13 0.13 83 1016.3
20260903173059 22 225 9.7 19.3 0.00 0.13 0.13 83 1016.5
20260903172557 22 246 6.4 16.1 0.00 0.13 0.13 82 1016.6
20260903172058 22 261 8.0 19.3 0.00 0.13 0.13 81 1016.5
20260903171557 22 339 4.8 12.9 0.00 0.13 0.13 81 1016.4
20260903171058 22 237 4.8 19.3 0.00 0.13 0.13 81 1016.4
20260903162557 22 248 11.3 32.2 0.00 0.13 0.13 80 1016.3
20260903162058 22 243 9.7 24.1 0.00 0.13 0.13 79 1016.6
20260903155557 22 242 11.3 19.3 0.00 0.13 0.13 79 1016.4
20260903155058 22 257 12.9 22.5 0.00 0.13 0.13 79 1016.4
20260903154557 22 240 12.9 20.9 0.00 0.13 0.13 79 1016.4
20260903154058 22 249 9.7 22.5 0.00 0.13 0.13 79 1016.4
20260903153557 22 247 9.7 27.4 0.00 0.13 0.13 78 1016.5
20260903152557 22 262 11.3 22.5 0.00 0.13 0.13 76 1016.6
20260903152058 22 299 11.3 27.4 0.00 0.13 0.13 75 1016.7
20260903151557 22 249 14.5 22.5 0.00 0.13 0.13 76 1016.8
20260903151057 22 254 11.3 32.2 0.00 0.13 0.13 76 1016.8
20260903145058 22 256 8.0 24.1 0.00 0.13 0.13 74 1016.6
20260903144557 22 271 9.7 24.1 0.00 0.13 0.13 75 1016.8
20260903144057 23 284 11.3 24.1 0.00 0.13 0.13 74 1016.7
20260903143558 23 267 11.3 32.2 0.00 0.13 0.13 74 1016.7
20260903142057 22 235 14.5 25.7 0.00 0.13 0.13 74 1016.5
20260903141557 22 283 12.9 29.0 0.00 0.13 0.13 74 1016.5
20260903141058 22 264 14.5 27.4 0.00 0.13 0.13 74 1016.6
20260903134557 22 247 16.1 27.4 0.00 0.13 0.13 72 1016.5
20260903134058 22 291 14.5 24.1 0.00 0.13 0.13 74 1016.5
20260903133557 22 261 11.3 27.4 0.00 0.13 0.13 73 1016.6
20260903130057 22 270 11.3 32.2 0.00 0.13 0.13 74 1016.3
20260903124556 22 265 12.9 35.4 0.00 0.13 0.13 75 1016.4
20260903124058 22 260 16.1 32.2 0.00 0.13 0.13 75 1016.4
20260903123557 22 263 19.3 33.8 0.00 0.13 0.13 76 1016.4
20260903123057 22 263 16.1 37.0 0.00 0.13 0.13 75 1016.4
20260903120057 22 268 12.9 35.4 0.00 0.13 0.13 76 1016.3
20260903115557 22 262 9.7 25.7 0.00 0.13 0.13 77 1016.3
20260903115057 22 271 17.7 32.2 0.00 0.13 0.13 76 1016.2
20260903114557 22 278 12.9 25.7 0.00 0.13 0.13 78 1016.3
20260903113057 22 263 14.5 32.2 0.00 0.13 0.13 78 1016.2
20260903112557 22 246 16.1 32.2 0.00 0.13 0.13 78 1016.2
20260903112057 22 263 11.3 27.4 0.00 0.13 0.13 79 1016.1
20260903111556 22 252 16.1 27.4 0.00 0.13 0.13 79 1016.1
20260903111058 21 267 14.5 27.4 0.00 0.13 0.13 80 1016.2
20260903110056 21 248 9.7 19.3 0.00 0.13 0.13 82 1016.0
20260903105556 21 257 14.5 27.4 0.00 0.13 0.13 81 1016.0
20260903105057 21 276 20.9 38.6 0.00 0.13 0.13 80 1016.0
20260903104557 21 249 17.7 33.8 0.00 0.13 0.13 79 1016.2
20260903104057 22 243 6.4 20.9 0.00 0.13 0.13 80 1016.1
20260903103557 21 237 16.1 40.2 0.00 0.13 0.13 79 1016.2
20260903103057 21 251 11.3 27.4 0.00 0.13 0.13 80 1016.2
20260903102556 21 249 9.7 32.2 0.00 0.13 0.13 80 1016.0
20260903102058 21 267 14.5 29.0 0.00 0.13 0.13 80 1016.1
20260903101557 21 271 16.1 29.0 0.00 0.18 0.13 79 1016.1
20260903101057 21 274 20.9 40.2 0.00 0.23 0.13 78 1016.0
20260903095057 21 248 16.1 33.8 0.00 0.23 0.13 82 1016.0
20260903093556 21 274 11.3 19.3 0.00 0.23 0.13 83 1015.8
20260903092556 21 263 11.3 19.3 0.00 0.23 0.13 83 1015.7
20260903092057 21 247 11.3 32.2 0.00 0.23 0.13 83 1015.7
20260903075057 20 258 8.0 20.9 0.00 0.23 0.13 92 1015.1
20260903074556 20 235 9.7 24.1 0.00 0.23 0.13 92 1015.2
20260903074057 20 237 9.7 22.5 0.00 0.23 0.13 93 1015.2
20260903072556 19 264 9.7 20.9 0.03 0.23 0.13 93 1015.3
20260903072057 19 275 6.4 14.5 0.05 0.23 0.13 94 1015.3
20260903063556 18 246 8.0 16.1 0.08 0.23 0.10 95 1015.3
20260903062556 18 254 9.7 19.3 0.08 0.23 0.10 95 1015.2
20260903062057 18 251 6.4 14.5 0.08 0.20 0.08 94 1015.2
20260903055057 18 248 11.3 19.3 0.05 0.15 0.05 94 1014.9
20260903054556 18 252 8.0 19.3 0.05 0.15 0.05 94 1014.8
20260903052556 18 240 8.0 19.3 0.03 0.15 0.03 93 1014.9
20260903052057 18 253 9.7 22.5 0.00 0.13 0.00 93 1015.0
20260903051556 18 247 8.0 20.9 0.00 0.13 0.00 94 1015.0
20260903051056 18 239 4.8 20.9 0.00 0.13 0.00 94 1015.0
20260903050056 18 236 8.0 19.3 0.00 0.13 0.00 94 1014.8
20260903045556 18 252 8.0 19.3 0.00 0.13 0.00 94 1014.8
20260903035056 18 248 8.0 22.5 0.00 0.13 0.00 93 1014.9
20260903033556 18 196 8.0 19.3 0.00 0.13 0.00 93 1015.3
20260903033056 18 243 8.0 16.1 0.00 0.13 0.00 92 1015.3
20260903023556 17 197 9.7 20.9 0.00 0.13 0.00 91 1015.3
20260903020057 18 248 12.9 32.2 0.00 0.13 0.00 82 1015.9
20260903015057 18 222 8.0 20.9 0.00 0.13 0.00 82 1015.8
20260903014555 18 223 11.3 20.9 0.00 0.13 0.00 82 1015.9
20260903014056 18 234 14.5 24.1 0.00 0.13 0.00 83 1015.9
20260903013556 18 239 8.0 16.1 0.00 0.13 0.00 83 1015.9
20260903013056 18 227 8.0 14.5 0.00 0.13 0.00 82 1016.0
20260903012556 18 228 11.3 16.1 0.00 0.13 0.00 81 1016.3
20260903012057 19 250 11.3 24.1 0.00 0.13 0.00 81 1016.3
20260903011555 19 239 8.0 19.3 0.00 0.13 0.00 79 1016.3